Hourly Data Report for May 02, 2012

All times are specified in Local Standard Time (LST). Add 1 hour to adjust for Daylight Saving Time where and when it is observed.

LONDON A
ONTARIO

43°01'59.000" N
81°09'04.000" W
278.00 m
6144473
71623
YXU

Download Data

Hourly Data (May 2012)
Hourly Data Report for May 2, 2012
Temp Definition
°C
Dew Point Temp Definition
°C
Rel Hum Definition
%
Wind Dir Definition
10's deg

Wind Spd Definition
km/h
Visibility Definition
km
Stn Press Definition
kPa
Hmdx Definition


Wind Chill Definition


Weather Definition


TIME
00:00 Legend Double Dagger 9.0 7.6 91 8 9 4.0 98.34     Fog
01:00 Legend Double Dagger 7.6 6.6 93 10 9 4.8 98.29     Fog
02:00 Legend Double Dagger 8.2 7.3 94 9 9 6.4 98.23     Fog
03:00 Legend Double Dagger 8.3 6.9 91 8 14 6.4 98.20     Fog
04:00 Legend Double Dagger 8.0 6.9 93 10 12 4.0 98.23     Fog
05:00 Legend Double Dagger 8.7 7.3 91 11 15 6.4 98.23     Fog
06:00 Legend Double Dagger 9.5 7.8 89 9 17 8.1 98.21     Fog
07:00 Legend Double Dagger 10.3 8.4 88 8 20 8.1 98.25     Fog
08:00 Legend Double Dagger 11.7 9.3 85 11 15 8.1 98.29     Fog
09:00 Legend Double Dagger 12.6 9.6 82 12 19 9.7 98.26     Fog
10:00 Legend Double Dagger 13.8 10.6 81 11 17 9.7 98.25     Fog
11:00 Legend Double Dagger 16.0 12.0 77 12 21 6.4 98.18     Fog
12:00 Legend Double Dagger 17.3 13.1 76 13 19 8.1 98.15     Fog
13:00 Legend Double Dagger 18.6 14.7 78 14 24 6.4 98.04     Fog
14:00 Legend Double Dagger 18.3 15.8 85 15 22 6.4 97.98     Fog
15:00 Legend Double Dagger 20.2 16.9 81 17 21 8.1 97.93 25   Haze
16:00 Legend Double Dagger 22.6 18.2 76 20 18 8.1 97.93 29   Haze
17:00 Legend Double Dagger 22.6 18.2 76 22 19 9.7 97.93 29   Haze
18:00 Legend Double Dagger 21.8 17.9 78 22 17 10.0 97.93 28   LegendNANA
19:00 Legend Double Dagger 20.5 17.2 81 22 16 10.0 97.97 26   Mostly Cloudy
20:00 Legend Double Dagger 18.2 16.2 88 24 10 9.7 98.01     Haze
21:00 Legend Double Dagger 17.5 15.9 90 24 11 9.7 98.06     Fog
22:00 Legend Double Dagger 17.3 16.3 94 26 8 8.1 98.14     Fog
23:00 Legend Double Dagger 15.0 14.7 98 27 5 6.4 98.20     Fog

Notes on Data Quality.

Legend

  • E = Estimated
  • M = Missing
  • NA = Not Available
  • ‡ = Partner data that is not subject to review by the National Climate Archives
Date modified: